RH
66 100 86 67 44 19 17 14 12 10 9 11 13 18 40 46 68 30 16 33 46 24 51 43 58 77 71 80 97 92 96 88 74 83 85 78 71 69 64 60 79 76 83
95 92 64 43 22 15 13 10 8 7 11 10 10 26 52 75 90 26 15 21 33 39 42 59 63 85 93 100 89 94 100 100 100 100 94 82 80 77 73 70 65 60 74
87 48 34 25 19 14 9 7 7 8 7 15 12 48 100 90 100 93 77 29 54 69 42 70 71 90 100 100 100 96 100 100 100 100 100 100 100 79 82 79 74 91 76
41 37 25 22 15 7 7 8 10 10 13 28 56 72 94 98 100 84 81 40 66 71 43 51 94 90 97 100 100 100 100 100 100 100 97 91 88 88 83 100 95 87 93
31 26 20 14 7 7 8 9 12 26 41 48 82 96 99 100 100 94 100 57 81 82 55 89 95 94 96 93 98 100 100 100 100 100 99 85 100 100 91 79 100 99 84
19 12 9 7 8 8 10 12 17 80 68 76 81 74 100 93 100 93 99 92 100 60 58 89 100 100 100 98 100 100 100 100 100 100 100 100 97 100 100 85 84 100 89
13 8 7 7 8 9 11 19 65 86 69 96 88 81 100 100 73 100 100 99 77 77 98 94 100 100 100 94 88 100 100 100 100 100 100 100 96 91 71 87 97 100 100
8 8 8 8 9 10 12 25 53 85 100 100 85 100 100 100 69 98 98 93 89 86 95 100 100 100 100 76 72 100 100 100 100 100 100 100 79 69 74 82 93 93 98
9 9 9 9 11 13 13 32 90 80 100 100 80 83 100 100 100 100 100 100 100 100 99 98 100 100 100 91 78 100 100 100 100 100 100 87 78 67 65 79 87 86 92
10 11 10 12 13 13 14 32 79 99 100 97 76 100 100 100 100 100 100 100 94 100 100 100 100 100 100 100 95 100 100 100 100 100 91 81 72 68 68 77 100 100 100
15 13 12 12 14 14 18 26 70 98 100 100 100 93 100 100 100 100 90 85 87 99 100 95 100 100 100 100 100 94 100 100 100 96 97 100 100 75 100 100 100 100 100
17 18 14 12 17 19 30 30 56 99 100 98 100 100 92 84 95 100 100 100 76 85 88 85 86 100 100 100 100 100 94 99 90 79 89 60 71 100 100 100 100 100 100
21 22 16 16 18 21 36 38 62 98 100 96 100 100 100 100 100 100 100 100 100 83 100 53 42 58 78 88 75 100 100 100 92 99 97 74 59 76 100 100 100 100 100
26 26 21 17 16 20 30 35 62 93 100 97 100 100 100 100 100 100 100 100 82 90 100 100 39 25 48 67 58 90 100 100 66 72 82 100 83 51 100 100 90 90 99
28 29 25 22 18 16 23 34 64 87 100 100 65 100 100 84 88 100 100 100 98 100 100 100 100 69 46 84 72 77 99 84 45 66 72 95 100 100 99 87 94 89 100
32 30 27 25 25 18 18 27 62 99 100 100 100 100 100 100 100 100 100 99 85 80 86 97 100 100 93 48 43 38 79 60 45 43 63 58 92 100 100 100 99 81 84
36 33 29 30 28 22 19 19 38 98 100 100 100 100 100 100 100 100 99 100 100 100 64 92 100 100 54 55 72 51 49 44 25 35 69 60 50 63 100 100 85 76 82
35 35 34 32 30 28 22 19 18 73 100 100 100 69 84 100 98 100 100 96 100 100 100 51 100 100 100 100 70 77 46 38 29 52 56 56 46 54 58 79 100 91 85
47 46 50 36 34 36 24 22 20 24 85 100 100 100 96 100 94 100 88 95 100 94 100 100 86 100 100 78 100 100 88 74 95 79 66 69 70 61 46 77 96 68 45
51 40 50 44 31 38 30 22 21 17 23 92 100 100 100 100 97 96 95 84 100 78 80 100 100 100 97 94 100 100 78 74 63 57 43 39 35 65 87 78 70 51 40
59 51 46 46 37 32 38 32 21 19 17 34 84 100 100 100 100 100 80 100 84 100 76 85 77 89 98 98 85 78 100 100 100 100 100 100 100 100 88 70 63 52 45
36 69 71 59 46 29 34 30 29 22 18 16 38 86 100 100 100 94 97 100 95 76 86 100 97 97 91 98 98 79 73 68 67 96 98 100 100 100 92 83 70 60 44
46 44 47 55 60 51 43 43 38 30 26 22 18 31 86 99 98 89 100 98 92 72 65 64 70 69 70 78 78 86 94 84 89 94 98 98 100 100 98 92 66 67 86
57 51 50 52 48 56 54 55 58 42 41 30 21 17 18 46 80 88 95 100 100 97 89 79 81 92 99 100 100 100 88 72 87 76 67 59 90 88 94 100 100 100 100
69 64 58 60 60 61 60 63 74 79 55 53 40 25 18 18 24 38 64 79 75 92 93 96 81 98 96 90 100 100 100 100 100 100 100 74 68 66 91 99 94 79 82
90 78 71 68 71 80 75 74 67 75 76 65 52 38 27 23 20 21 23 34 42 44 41 55 84 98 89 100 100 100 100 100 100 100 100 100 99 94 79 68 54 50 52
Wind_Speed
61 60 63 71 80 82 81 79 75 70 60 53 52 44 39 36 36 34 38 43 41 43 35 34 34 36 36 37 40 38 29 28 35 29 27 30 38 38 40 43 42 41 36
58 68 73 78 83 79 75 68 61 57 56 49 45 35 28 31 30 27 33 39 41 41 37 34 37 38 38 39 38 34 30 27 24 23 25 26 30 28 32 35 41 43 41
74 74 77 81 80 76 68 58 52 48 47 43 37 21 12 24 22 18 18 34 39 39 38 37 39 41 39 32 30 29 27 27 28 29 26 28 26 28 26 30 33 33 39
80 80 79 80 74 60 54 45 40 40 37 32 19 28 37 26 19 24 13 33 38 43 41 39 35 42 39 33 30 31 27 31 33 31 29 27 25 26 28 23 22 33 35
79 75 75 66 55 53 47 35 32 27 26 20 15 27 42 28 28 19 15 34 41 49 44 39 33 30 35 34 34 33 34 31 33 31 28 29 27 25 27 27 26 29 34
65 56 56 49 47 44 37 27 23 16 18 12 20 30 39 32 29 25 29 42 51 46 47 41 20 28 35 38 36 37 36 35 31 32 33 32 32 29 27 26 26 26 29
53 49 47 47 44 39 30 21 14 21 13 18 28 28 33 29 31 32 37 47 53 52 51 52 39 39 33 43 39 37 39 37 33 35 34 34 32 31 31 26 27 28 28
40 40 42 40 36 32 23 18 16 19 25 30 36 43 34 31 28 33 42 48 51 56 51 52 48 41 35 42 40 37 39 38 34 34 32 35 32 32 29 27 28 30 30
34 36 37 34 29 25 20 16 15 18 35 35 46 52 37 33 29 35 38 45 50 52 50 50 47 44 43 44 39 35 38 37 36 36 32 30 30 30 30 30 31 30 31
33 32 33 30 23 21 20 16 19 27 35 42 51 41 31 47 38 42 35 41 51 48 43 43 47 46 43 42 41 36 35 37 34 32 31 31 32 34 33 33 35 36 36
32 32 31 29 20 17 18 16 24 41 39 44 48 48 35 47 54 46 35 44 50 50 35 46 44 43 42 42 45 44 42 41 41 39 37 32 33 35 34 38 39 38 39
32 32 27 30 19 13 16 17 24 45 49 47 52 45 45 49 53 46 46 40 46 46 45 48 44 44 40 44 47 45 43 43 41 42 40 39 34 34 35 36 35 36 36
33 32 27 26 20 14 15 17 25 48 53 52 57 52 51 50 46 47 52 43 46 44 48 51 46 43 43 39 44 40 39 40 35 34 35 37 41 38 38 38 41 35 41
33 31 28 24 21 16 15 17 26 47 53 56 58 51 48 47 44 46 49 52 48 51 40 38 43 44 49 44 40 39 40 39 36 38 39 39 40 44 43 39 35 34 37
34 34 30 27 23 18 17 18 22 40 49 59 58 45 46 53 52 49 50 50 61 59 46 43 45 43 43 42 46 47 43 39 39 40 42 42 43 42 42 42 38 39 39
37 36 33 29 28 20 17 18 22 34 48 62 67 54 43 56 52 48 49 53 60 58 55 44 43 49 50 52 53 52 53 46 43 45 42 44 43 39 41 41 41 40 43
40 41 35 33 31 26 19 19 23 31 46 59 70 62 55 55 51 50 56 43 52 59 61 50 46 47 49 52 50 52 54 56 50 47 46 44 42 40 41 41 43 45 46
46 47 43 37 35 33 26 20 23 29 40 52 68 69 61 57 51 49 49 55 48 50 63 65 56 53 48 50 51 52 52 52 49 47 48 45 46 47 50 52 50 50 48
50 48 45 41 38 38 36 28 24 25 38 42 55 68 72 58 65 56 57 54 57 60 44 61 72 73 62 59 57 54 53 53 54 56 57 56 57 60 60 57 57 56 54
54 54 52 49 45 41 42 38 32 28 29 42 49 62 63 63 57 63 61 59 57 60 57 56 62 63 69 67 55 59 61 63 63 64 63 64 65 62 60 60 60 64 63
57 59 59 56 52 48 46 44 42 36 33 32 47 57 62 66 64 54 67 60 64 59 64 63 67 66 61 67 66 67 57 59 64 66 63 63 64 65 64 68 70 69 66
61 62 60 56 55 56 54 51 47 45 43 39 37 42 49 63 67 68 61 58 63 70 71 67 68 66 69 70 71 72 74 66 65 66 68 67 70 69 70 70 67 69 69
66 67 66 66 63 60 58 56 55 53 50 49 46 44 46 54 66 71 66 67 64 72 70 73 74 76 77 74 75 76 79 79 76 71 67 71 73 73 71 72 73 69 68
71 71 70 68 65 65 63 60 62 58 60 57 55 51 47 46 49 55 59 61 61 64 68 74 71 69 70 68 68 70 72 77 76 81 82 80 76 77 78 74 74 75 78
78 76 74 74 72 70 68 66 64 63 64 63 62 58 54 53 51 51 53 59 58 67 65 71 75 75 75 77 74 71 69 71 73 77 80 82 81 80 80 81 80 81 80
85 84 82 81 80 76 73 71 69 69 68 68 65 63 63 60 58 57 56 56 54 55 59 62 66 73 76 77 78 80 79 81 80 79 81 83 83 83 84 85 87 90 91
Wind_Direction
294 296 297 298 301 302 298 297 294 291 290 289 287 279 271 268 269 258 240 229 224 214 206 212 217 212 207 210 211 210 210 221 228 224 227 230 236 236 233 233 231 232 236
294 291 297 300 303 302 297 293 289 290 289 288 285 279 269 272 271 259 234 223 217 205 204 206 209 204 203 211 208 207 208 216 222 222 229 228 228 231 232 232 234 234 235
289 299 300 301 301 297 293 287 288 289 291 292 283 237 243 245 270 233 222 213 205 197 195 204 209 204 202 204 221 212 214 220 227 226 226 223 219 226 229 228 225 228 232
303 301 302 301 300 292 292 290 287 288 292 289 279 193 194 202 231 199 218 203 194 192 194 199 197 201 208 217 212 231 233 227 228 229 229 223 226 227 224 228 218 224 228
301 301 301 298 291 291 290 289 285 290 289 281 223 187 184 187 185 155 235 201 193 187 190 192 196 207 219 218 213 214 224 227 224 230 229 226 229 234 235 227 229 228 231
301 298 297 295 295 293 289 284 283 268 278 228 201 178 178 177 175 184 204 195 187 186 190 183 200 202 224 222 213 216 216 219 217 222 224 221 224 227 231 235 232 232 233
296 297 297 298 294 289 284 272 255 251 250 171 161 164 163 175 177 192 195 188 186 187 187 178 175 197 214 223 214 216 216 220 215 225 226 223 227 229 230 235 233 236 240
297 301 303 303 293 286 268 257 248 232 182 171 160 152 155 171 187 189 182 185 189 191 190 186 188 193 208 218 216 219 222 218 218 226 227 227 230 230 231 236 241 244 242
299 305 311 308 294 280 254 243 227 203 175 171 157 150 160 161 195 182 189 187 189 195 195 192 202 211 216 222 222 221 218 218 226 228 228 230 226 231 234 240 246 248 248
301 311 317 314 297 277 250 234 212 189 176 169 159 166 155 165 199 192 184 193 196 193 196 201 206 210 215 221 222 218 229 227 227 233 234 232 236 238 245 244 246 241 240
299 309 316 323 300 273 249 238 206 183 184 172 168 167 168 171 179 185 186 204 204 200 212 205 210 215 217 221 221 220 219 226 229 230 227 238 249 240 242 242 239 239 241
294 302 313 323 311 277 252 249 208 188 186 180 171 172 174 176 183 185 191 198 208 208 201 222 218 217 220 222 221 224 223 228 232 232 235 230 233 243 237 243 242 242 244
287 295 304 315 317 274 257 247 214 188 187 185 178 181 178 187 193 192 202 201 197 203 219 221 224 227 220 226 219 221 226 228 228 234 237 238 239 236 248 243 238 245 243
282 286 292 303 315 281 261 246 229 198 196 192 188 191 193 194 189 204 203 211 206 203 216 224 236 225 230 229 225 220 232 231 239 236 237 238 236 235 243 252 248 251 248
277 279 283 291 298 303 259 248 234 212 204 199 190 193 206 193 200 208 206 208 207 211 212 227 226 228 223 224 227 230 233 235 244 242 236 237 239 242 246 249 247 247 243
272 274 276 282 287 290 280 250 235 221 208 202 203 211 204 204 211 213 215 218 213 217 212 223 229 235 228 234 243 243 236 241 245 243 239 237 239 246 253 250 247 249 247
262 269 270 278 277 278 278 257 237 224 216 214 209 217 219 210 215 216 223 216 222 221 215 220 229 238 245 243 245 241 247 245 254 244 236 236 242 247 249 254 255 252 255
263 270 273 269 271 272 268 264 251 231 222 220 216 215 215 224 221 224 220 222 226 220 228 223 231 233 233 238 242 244 248 248 243 244 241 246 252 257 260 258 250 253 257
261 264 267 270 267 265 264 262 255 245 226 230 224 224 227 231 229 240 231 236 231 225 231 232 233 239 243 240 241 240 236 236 241 242 245 246 252 256 256 257 251 255 260
256 261 263 266 268 264 259 259 255 248 238 231 230 231 233 234 239 240 240 241 235 237 237 234 234 242 245 244 246 248 248 245 251 254 261 258 256 255 250 248 252 261 261
256 258 260 261 266 265 260 253 252 250 243 237 228 232 235 236 234 241 238 243 244 240 241 242 238 239 242 246 249 249 253 252 252 249 249 254 248 249 250 253 260 257 257
259 258 257 257 259 261 260 258 250 251 249 242 238 232 233 237 239 240 244 245 244 244 242 245 247 247 246 249 250 251 254 256 257 255 256 256 256 253 256 254 254 257 258
254 255 255 255 256 259 260 256 252 248 248 249 242 239 233 232 237 241 245 247 249 248 244 247 247 249 250 253 254 252 251 250 254 255 255 254 253 254 256 258 259 259 256
253 254 255 256 257 257 256 254 251 246 247 246 248 245 241 239 237 234 236 240 239 242 246 247 249 247 247 248 253 254 256 258 258 254 257 259 257 256 254 255 257 259 256
252 252 252 254 255 256 256 253 249 247 246 243 243 247 247 244 244 241 239 239 242 242 244 243 247 249 251 252 251 250 252 256 257 258 257 258 258 257 256 257 258 261 263
250 250 251 252 255 254 253 252 250 249 248 249 246 244 244 247 249 249 247 245 245 247 248 249 247 246 246 248 251 252 252 252 252 255 255 256 258 260 262 260 261 262 263